Wind_Speed
23 24 23 23 24 24 23 23 23 23 23 23 23 23 23 22 23 23 23 22 22 22 22 22 22 22 21 21 20 20 20 20 20 21 21 21 20 19
24 25 25 25 25 24 24 24 24 24 24 24 24 24 24 24 24 23 23 23 23 23 23 23 22 22 22 21 21 21 20 20 20 20 21 21 21 20
25 25 25 25 25 25 25 25 25 25 25 25 25 25 25 25 25 25 25 25 24 24 24 23 23 23 23 23 22 21 21 21 21 21 21 21 21 21
26 26 26 26 26 27 26 26 26 26 26 26 26 26 27 27 27 27 26 26 26 26 26 25 25 25 25 24 24 24 23 22 22 22 22 22 22 22
27 28 28 28 28 27 28 27 28 28 28 28 27 27 28 28 28 28 28 28 27 27 27 27 26 26 26 26 25 25 25 24 24 24 24 24 24 23
29 29 30 30 29 29 29 28 28 29 29 29 29 28 28 28 28 29 29 29 28 28 28 28 27 27 27 26 27 27 26 26 25 25 25 26 26 26
30 31 31 31 31 30 29 29 29 29 29 29 29 29 29 29 29 29 29 30 30 29 29 29 29 29 28 27 28 27 27 27 28 27 27 26 27 27
31 31 31 31 31 30 30 30 30 29 29 29 28 29 29 29 29 29 29 29 30 31 30 30 30 30 29 29 29 29 28 28 28 28 28 28 27 27
30 30 30 30 30 29 29 29 28 28 28 28 28 28 28 29 29 29 29 29 29 30 31 31 31 31 30 29 30 30 30 29 29 29 29 29 29 29
29 29 29 29 29 29 28 27 27 28 28 29 29 29 29 29 29 29 29 29 29 29 30 30 31 31 30 30 29 30 30 30 30 29 29 30 30 29
28 28 28 28 28 28 28 27 27 28 28 28 28 28 29 29 29 29 29 29 28 28 29 30 31 31 31 31 31 30 30 31 31 31 30 31 31 30
27 27 27 26 26 27 27 27 27 27 27 27 27 28 27 28 29 29 29 29 28 28 29 29 30 31 31 31 31 31 31 31 31 32 32 32 32 32
26 26 25 25 26 26 26 26 26 25 25 26 26 27 27 28 28 29 29 29 28 28 29 29 29 30 31 31 31 32 32 31 31 32 32 32 32 32
25 25 24 24 25 25 25 25 25 25 25 25 26 26 27 27 27 28 29 29 28 28 29 30 30 30 31 31 31 31 32 32 32 32 31 31 31 31
24 24 24 24 24 24 24 25 25 25 25 25 25 25 25 26 26 26 26 27 28 29 29 29 29 30 30 30 31 31 31 32 32 32 32 31 31 31
23 23 24 24 24 25 25 25 25 25 25 25 25 25 26 26 25 25 26 26 27 28 29 30 29 30 30 30 30 31 31 31 31 32 32 32 32 31
22 23 23 24 24 24 25 25 25 25 25 25 26 26 25 26 26 25 25 26 27 28 29 29 30 31 30 30 30 30 31 31 31 31 31 32 32 32
21 21 22 23 24 24 25 25 25 26 25 25 25 25 25 26 26 26 26 26 27 27 27 28 29 30 30 30 30 30 30 31 31 31 31 32 32 33
22 22 23 23 24 25 25 25 25 25 25 25 24 24 24 25 26 26 26 26 27 27 27 27 27 28 29 29 29 29 29 30 31 31 31 31 31 32
23 22 23 23 24 25 25 25 25 25 24 24 23 23 23 24 25 25 25 25 25 25 25 25 26 27 27 27 28 28 29 30 31 31 31 31 31 32
23 23 23 24 24 24 24 25 25 24 24 24 24 24 24 23 24 24 24 24 24 24 25 25 25 26 27 27 27 27 29 30 31 31 31 31 32 32
22 23 23 23 23 23 23 23 23 24 24 24 24 24 23 23 23 23 23 24 24 24 25 25 25 26 27 28 28 28 29 30 32 32 32 32 32 32
22 22 22 22 22 22 22 22 23 23 24 23 23 24 24 24 23 24 24 24 24 24 25 25 26 27 27 28 29 29 29 30 32 32 33 33 33 33
Wind_Direction
282 282 282 281 281 280 277 275 274 273 272 273 272 271 271 270 269 267 265 263 262 261 261 262 263 263 263 264 265 264 263 259 257 255 254 253 253 254
282 283 283 283 282 280 278 276 275 274 271 271 271 270 268 268 267 266 265 263 261 261 261 261 261 262 262 263 262 262 262 259 259 256 252 251 250 251
280 280 281 283 282 280 279 278 276 274 272 271 270 269 268 267 265 265 264 263 261 261 261 260 258 258 260 263 261 259 259 258 257 254 252 250 248 250
280 279 279 280 280 278 278 278 277 275 273 271 270 269 268 266 265 264 264 263 262 261 260 260 259 257 259 261 260 258 257 256 254 252 252 252 250 249
280 280 280 280 280 279 277 277 276 274 273 272 270 269 267 265 264 263 262 261 261 262 261 261 261 258 257 259 257 257 256 254 252 251 251 253 251 250
281 281 280 280 280 280 278 276 275 274 273 271 270 270 268 266 264 263 261 260 259 260 260 260 261 260 259 259 258 258 257 253 253 251 251 252 251 251
281 282 281 280 281 280 279 276 275 274 271 270 269 269 268 265 264 262 261 260 258 258 258 259 260 260 259 259 259 259 257 257 255 254 253 253 253 252
282 282 281 280 280 280 279 277 275 273 271 269 268 269 268 265 264 262 262 261 259 258 257 258 259 260 260 259 259 258 258 258 258 257 256 255 254 255
282 281 281 281 280 280 279 278 275 272 271 269 269 268 268 266 265 264 263 263 260 258 257 257 259 260 260 260 259 258 257 257 258 258 256 254 253 255
283 282 281 280 280 279 277 277 276 274 274 272 270 269 267 265 264 264 263 262 261 260 258 257 258 259 260 260 260 259 258 256 257 258 257 253 253 254
284 283 282 280 280 279 277 277 277 277 277 275 273 271 268 265 264 263 263 262 261 261 260 259 258 259 259 259 259 260 258 256 255 255 256 254 251 253
283 284 283 281 279 279 279 278 278 278 277 275 273 272 270 266 264 263 262 262 261 260 261 260 259 259 259 259 258 258 257 256 255 255 254 253 252 252
284 284 283 281 280 279 279 278 278 279 277 275 274 272 269 267 265 263 262 261 261 260 260 260 260 260 260 260 259 259 257 256 255 255 254 253 253 252
286 284 282 280 280 278 279 279 278 278 277 276 275 274 271 268 267 265 262 259 259 261 261 260 260 260 260 260 259 258 258 257 256 255 254 252 252 251
285 284 281 279 280 280 281 280 278 279 278 277 277 276 273 269 268 265 262 259 260 261 262 261 260 259 260 260 260 259 258 257 256 255 254 253 253 254
286 284 281 279 280 282 283 281 280 279 278 277 278 278 275 271 268 267 264 262 261 262 263 262 260 259 259 260 260 259 258 258 256 255 254 254 254 254
289 287 284 281 281 283 284 283 280 280 279 278 278 278 276 271 267 266 265 262 262 263 264 262 260 260 260 260 261 260 259 258 255 252 252 254 256 256
289 289 286 284 283 284 284 283 282 281 279 278 278 277 276 273 268 267 266 263 262 262 263 263 262 261 260 261 262 261 260 258 255 254 254 255 256 256
290 288 287 288 286 284 283 283 283 282 279 277 278 277 276 274 271 268 267 265 263 264 264 263 262 261 260 260 261 261 260 259 257 256 256 256 256 256
290 289 289 289 290 287 283 282 282 281 281 278 277 276 276 275 272 269 268 267 264 264 265 265 264 263 261 262 262 262 261 260 259 258 257 257 256 256
291 291 290 291 291 290 286 282 281 281 281 279 277 275 275 275 272 270 268 267 264 264 265 265 266 265 264 262 263 263 263 262 261 260 259 258 258 258
293 291 290 291 291 291 289 286 284 283 282 280 277 275 274 274 273 271 270 268 266 266 265 265 266 266 265 263 264 266 265 263 262 262 262 261 261 261
294 292 292 292 292 292 290 288 286 284 283 280 276 276 275 273 273 272 271 270 268 267 266 266 266 266 265 265 265 266 266 265 264 263 263 263 263 262
Height
5782 5781 5780 5778 5777 5776 5776 5775 5775 5775 5775 5774 5773 5773 5773 5773 5773 5773 5774 5774 5775 5775 5776 5776 5777 5777 5777 5777 5777 5777 5778 5778 5778 5779 5780 5781 5781 5783
5775 5774 5772 5771 5770 5769 5768 5767 5767 5767 5767 5767 5767 5766 5766 5766 5766 5766 5767 5767 5768 5769 5769 5770 5770 5770 5771 5771 5771 5772 5772 5772 5773 5773 5774 5775 5776 5777
5768 5766 5765 5764 5763 5761 5760 5760 5759 5759 5759 5759 5759 5759 5759 5759 5759 5759 5759 5760 5761 5762 5762 5763 5764 5764 5764 5764 5765 5765 5766 5766 5767 5768 5769 5770 5771 5772
5760 5758 5757 5756 5755 5754 5753 5752 5751 5751 5751 5751 5751 5751 5751 5751 5751 5751 5752 5753 5753 5754 5755 5756 5756 5757 5757 5758 5758 5759 5760 5760 5761 5762 5763 5764 5765 5766
5751 5750 5749 5748 5747 5746 5744 5743 5743 5742 5742 5742 5742 5742 5742 5742 5742 5743 5744 5745 5745 5746 5747 5748 5749 5749 5750 5751 5751 5752 5753 5754 5754 5755 5756 5758 5759 5760
5742 5741 5740 5739 5738 5737 5735 5734 5733 5733 5732 5732 5732 5732 5732 5732 5733 5734 5735 5736 5737 5738 5739 5740 5741 5741 5742 5743 5744 5744 5745 5746 5747 5748 5749 5751 5752 5753
5733 5731 5730 5729 5728 5726 5725 5724 5723 5723 5722 5722 5722 5722 5723 5723 5724 5724 5725 5726 5727 5729 5730 5731 5732 5734 5734 5735 5736 5737 5738 5739 5740 5741 5742 5744 5745 5746
5723 5722 5720 5719 5717 5716 5715 5714 5713 5713 5713 5712 5713 5713 5713 5713 5714 5715 5716 5717 5718 5720 5720 5722 5723 5725 5726 5727 5728 5729 5730 5731 5732 5733 5734 5736 5737 5739
5713 5712 5711 5709 5708 5707 5705 5704 5703 5703 5703 5703 5703 5703 5704 5704 5705 5706 5706 5707 5708 5710 5711 5713 5714 5716 5717 5718 5719 5720 5721 5723 5724 5725 5726 5727 5729 5730
5703 5702 5701 5700 5699 5698 5697 5696 5695 5694 5694 5694 5694 5694 5694 5695 5695 5696 5697 5698 5699 5700 5702 5704 5705 5707 5708 5709 5710 5711 5712 5714 5715 5716 5717 5719 5720 5722
5694 5693 5692 5691 5690 5689 5688 5687 5686 5686 5684 5684 5684 5684 5684 5685 5685 5686 5687 5688 5689 5691 5692 5694 5696 5697 5699 5700 5701 5702 5703 5705 5706 5707 5708 5710 5712 5713
5686 5685 5683 5683 5682 5680 5679 5679 5678 5677 5676 5675 5675 5674 5674 5675 5675 5677 5678 5679 5680 5681 5683 5685 5686 5688 5689 5691 5692 5693 5694 5695 5697 5698 5699 5701 5702 5704
5677 5676 5675 5674 5673 5672 5671 5670 5669 5669 5668 5667 5666 5666 5665 5665 5666 5667 5668 5669 5671 5672 5674 5675 5676 5678 5679 5681 5682 5683 5684 5685 5687 5688 5690 5691 5693 5695
5669 5668 5667 5666 5665 5664 5663 5662 5661 5660 5660 5659 5658 5657 5657 5656 5657 5657 5658 5660 5662 5663 5664 5665 5667 5668 5670 5671 5672 5673 5674 5675 5677 5679 5680 5682 5683 5685
5662 5661 5660 5659 5658 5657 5656 5654 5653 5652 5652 5651 5650 5649 5648 5648 5648 5648 5649 5650 5652 5653 5655 5656 5657 5658 5660 5661 5662 5663 5664 5665 5667 5668 5670 5672 5674 5676
5655 5653 5652 5651 5650 5649 5648 5647 5646 5645 5644 5643 5642 5641 5640 5639 5639 5639 5640 5641 5643 5644 5645 5646 5647 5649 5650 5651 5653 5654 5655 5656 5657 5659 5661 5663 5664 5666
5648 5646 5645 5644 5643 5642 5640 5639 5638 5637 5636 5635 5634 5633 5632 5631 5631 5631 5632 5633 5634 5635 5636 5637 5637 5639 5640 5642 5643 5644 5645 5646 5648 5649 5651 5653 5655 5657
5641 5639 5638 5636 5635 5634 5633 5631 5630 5629 5627 5627 5626 5625 5624 5623 5623 5623 5623 5624 5625 5626 5627 5628 5628 5629 5630 5632 5633 5634 5635 5636 5638 5639 5641 5643 5645 5647
5634 5633 5631 5630 5628 5626 5625 5623 5622 5620 5619 5618 5617 5617 5616 5615 5615 5615 5614 5615 5616 5617 5618 5618 5619 5620 5621 5622 5623 5624 5626 5627 5628 5629 5631 5633 5635 5636
5627 5626 5624 5622 5621 5619 5617 5616 5614 5612 5611 5610 5609 5609 5608 5607 5607 5606 5606 5607 5608 5608 5609 5610 5610 5611 5612 5614 5615 5615 5616 5617 5618 5619 5621 5622 5624 5625
5620 5618 5617 5615 5613 5611 5609 5608 5606 5605 5603 5602 5601 5601 5600 5599 5599 5598 5598 5599 5599 5600 5601 5602 5602 5603 5603 5605 5605 5606 5607 5607 5608 5609 5611 5612 5613 5614
5613 5611 5610 5608 5606 5604 5602 5600 5598 5597 5595 5594 5593 5592 5592 5591 5591 5591 5591 5591 5591 5592 5593 5593 5593 5594 5594 5595 5596 5597 5597 5598 5598 5599 5600 5601 5602 5604
5607 5604 5602 5600 5599 5597 5595 5593 5591 5589 5587 5586 5585 5584 5583 5583 5583 5583 5583 5583 5583 5584 5584 5584 5584 5584 5585 5586 5586 5587 5587 5588 5588 5588 5589 5590 5591 5593